| time (UTC) | temp C | wind direction | speed KPH | gust KPH | rain 1hr cm | rain 24hr cm | rain mn cm | humidity % | barometer mb |
| 20260505121555 | 16 | 134 | 0.0 | 12.9 | 0.00 | 0.00 | 0.00 | 58 | 1005.8 |
| 20260505120054 | 15 | 211 | 0.0 | 12.9 | 0.00 | 0.00 | 0.00 | 61 | 1005.9 |
| 20260505114556 | 14 | 203 | 0.0 | 4.8 | 0.00 | 0.00 | 0.00 | 63 | 1006.1 |
| 20260505113051 | 12 | 143 | 0.0 | 12.9 | 0.00 | 0.00 | 0.00 | 68 | 1006.1 |
| 20260505111546 | 11 | 209 | 0.0 | 8.0 | 0.00 | 0.00 | 0.00 | 74 | 1006.1 |
| 20260505101545 | 7 | 133 | 0.0 | 0.0 | 0.00 | 0.00 | 0.00 | 82 | 1006.2 |
| 20260505100041 | 7 | 133 | 0.0 | 0.0 | 0.00 | 0.00 | 0.00 | 82 | 1006.2 |
| 20260505094539 | 8 | 133 | 0.0 | 0.0 | 0.00 | 0.00 | 0.00 | 81 | 1006.3 |
| 20260505093044 | 8 | 133 | 0.0 | 0.0 | 0.00 | 0.00 | 0.00 | 81 | 1006.3 |
| 20260505091543 | 7 | 129 | 0.0 | 0.0 | 0.00 | 0.00 | 0.00 | 81 | 1006.2 |
| 20260505090047 | 7 | 129 | 0.0 | 0.0 | 0.00 | 0.00 | 0.00 | 81 | 1006.2 |
| 20260505084532 | 8 | 129 | 0.0 | 0.0 | 0.00 | 0.00 | 0.00 | 79 | 1006.3 |
| 20260505083029 | 8 | 129 | 0.0 | 0.0 | 0.00 | 0.00 | 0.00 | 77 | 1006.4 |
| 20260505081535 | 9 | 129 | 0.0 | 0.0 | 0.00 | 0.00 | 0.00 | 76 | 1006.4 |
| 20260505080043 | 9 | 129 | 0.0 | 0.0 | 0.00 | 0.00 | 0.00 | 74 | 1006.5 |
| 20260505074520 | 10 | 129 | 0.0 | 0.0 | 0.00 | 0.00 | 0.00 | 73 | 1006.5 |
| 20260505073019 | 10 | 129 | 0.0 | 0.0 | 0.00 | 0.00 | 0.00 | 72 | 1006.6 |
| 20260505071515 | 10 | 129 | 0.0 | 0.0 | 0.00 | 0.00 | 0.00 | 71 | 1006.6 |
| 20260505070018 | 11 | 128 | 0.0 | 0.0 | 0.00 | 0.00 | 0.00 | 68 | 1006.5 |
| 20260505064508 | 12 | 129 | 0.0 | 1.6 | 0.00 | 0.00 | 0.00 | 63 | 1006.5 |
| 20260505063006 | 13 | 128 | 0.0 | 9.7 | 0.00 | 0.00 | 0.00 | 59 | 1006.5 |
| 20260505061505 | 13 | 203 | 0.0 | 8.0 | 0.00 | 0.00 | 0.00 | 59 | 1006.5 |
| 20260505054600 | 13 | 217 | 0.0 | 4.8 | 0.00 | 0.00 | 0.00 | 58 | 1006.5 |
| 20260505053103 | 13 | 175 | 0.0 | 3.2 | 0.00 | 0.00 | 0.00 | 58 | 1006.4 |
| 20260505051555 | 13 | 182 | 0.0 | 16.1 | 0.00 | 0.00 | 0.00 | 57 | 1006.6 |
| 20260505050124 | 13 | 99 | 0.0 | 1.6 | 0.00 | 0.00 | 0.00 | 57 | 1006.7 |
| 20260505041601 | 14 | 290 | 0.0 | 8.0 | 0.00 | 0.00 | 0.00 | 55 | 1006.4 |
| 20260505040054 | 14 | 255 | 0.0 | 11.3 | 0.00 | 0.00 | 0.00 | 55 | 1006.3 |
| 20260505034544 | 15 | 144 | 0.0 | 11.3 | 0.00 | 0.00 | 0.00 | 54 | 1006.1 |
| 20260505033047 | 15 | 142 | 0.0 | 6.4 | 0.00 | 0.00 | 0.00 | 53 | 1006.1 |
| 20260505031547 | 15 | 213 | 0.0 | 11.3 | 0.00 | 0.00 | 0.00 | 53 | 1006.0 |
| 20260505030043 | 14 | 186 | 0.0 | 11.3 | 0.00 | 0.00 | 0.00 | 54 | 1006.1 |
| 20260505024542 | 12 | 250 | 1.6 | 14.5 | 0.00 | 0.00 | 0.00 | 61 | 1006.0 |
| 20260505023045 | 10 | 213 | 0.0 | 0.0 | 0.00 | 0.00 | 0.00 | 71 | 1005.9 |
| 20260505021542 | 11 | 213 | 0.0 | 0.0 | 0.00 | 0.00 | 0.00 | 69 | 1005.7 |
| 20260505020040 | 11 | 213 | 0.0 | 0.0 | 0.00 | 0.00 | 0.00 | 67 | 1005.7 |
| 20260505014600 | 11 | 213 | 0.0 | 0.0 | 0.00 | 0.00 | 0.00 | 66 | 1005.5 |
| 20260505013042 | 11 | 213 | 0.0 | 0.0 | 0.00 | 0.00 | 0.00 | 66 | 1005.4 |
| 20260505011539 | 12 | 213 | 0.0 | 0.0 | 0.00 | 0.00 | 0.00 | 64 | 1005.2 |
| 20260505010038 | 12 | 213 | 0.0 | 0.0 | 0.00 | 0.00 | 0.00 | 61 | 1005.0 |
| 20260505004542 | 12 | 213 | 0.0 | 0.0 | 0.00 | 0.00 | 0.00 | 61 | 1004.8 |
| 20260505003037 | 13 | 213 | 0.0 | 0.0 | 0.00 | 0.00 | 0.00 | 59 | 1004.6 |
| 20260505001537 | 13 | 213 | 0.0 | 0.0 | 0.00 | 0.00 | 0.00 | 55 | 1004.4 |
| 20260505000040 | 15 | 213 | 0.0 | 0.0 | 0.00 | 0.00 | 0.00 | 50 | 1004.3 |
| 20260504234548 | 16 | 213 | 0.0 | 0.0 | 0.00 | 0.00 | 0.00 | 44 | 1004.0 |
| 20260504233033 | 18 | 211 | 0.0 | 0.0 | 0.00 | 0.00 | 0.00 | 39 | 1003.9 |
| 20260504231527 | 18 | 227 | 0.0 | 4.8 | 0.00 | 0.00 | 0.00 | 36 | 1003.8 |
| 20260504230026 | 19 | 204 | 0.0 | 6.4 | 0.00 | 0.00 | 0.00 | 34 | 1003.5 |
| 20260504224528 | 20 | 193 | 0.0 | 9.7 | 0.00 | 0.00 | 0.00 | 33 | 1003.3 |
| 20260504223025 | 20 | 167 | 0.0 | 14.5 | 0.00 | 0.00 | 0.00 | 33 | 1003.3 |
| 20260504221529 | 20 | 228 | 1.6 | 14.5 | 0.00 | 0.00 | 0.00 | 32 | 1003.2 |
| 20260504220024 | 20 | 147 | 0.0 | 14.5 | 0.00 | 0.00 | 0.00 | 32 | 1003.2 |
| 20260504214523 | 20 | 297 | 4.8 | 22.5 | 0.00 | 0.00 | 0.00 | 32 | 1003.1 |
| 20260504213044 | 20 | 150 | 0.0 | 17.7 | 0.00 | 0.00 | 0.00 | 33 | 1003.3 |
| 20260504211522 | 20 | 199 | 0.0 | 24.1 | 0.00 | 0.00 | 0.00 | 32 | 1003.3 |
| 20260504210026 | 21 | 164 | 1.6 | 16.1 | 0.00 | 0.00 | 0.00 | 32 | 1003.2 |
| 20260504204523 | 21 | 271 | 1.6 | 14.5 | 0.00 | 0.00 | 0.00 | 31 | 1003.1 |
| 20260504203021 | 21 | 254 | 0.0 | 14.5 | 0.00 | 0.00 | 0.00 | 31 | 1003.1 |
| 20260504201525 | 21 | 211 | 0.0 | 19.3 | 0.00 | 0.00 | 0.00 | 32 | 1003.1 |
| 20260504200019 | 21 | 159 | 1.6 | 22.5 | 0.00 | 0.00 | 0.00 | 31 | 1003.2 |
| 20260504194519 | 21 | 238 | 3.2 | 17.7 | 0.00 | 0.00 | 0.00 | 33 | 1003.3 |
| 20260504193017 | 21 | 215 | 0.0 | 19.3 | 0.00 | 0.00 | 0.00 | 33 | 1003.3 |
| 20260504191518 | 21 | 229 | 4.8 | 20.9 | 0.00 | 0.00 | 0.00 | 36 | 1003.3 |
| 20260504190010 | 20 | 204 | 3.2 | 17.7 | 0.00 | 0.00 | 0.00 | 39 | 1003.3 |
| 20260504184514 | 18 | 218 | 0.0 | 16.1 | 0.00 | 0.00 | 0.00 | 37 | 1003.7 |
| 20260504183018 | 18 | 231 | 0.0 | 9.7 | 0.00 | 0.00 | 0.00 | 38 | 1003.9 |
| 20260504181510 | 18 | 290 | 0.0 | 12.9 | 0.00 | 0.00 | 0.00 | 36 | 1003.7 |
| 20260504180010 | 18 | 220 | 0.0 | 9.7 | 0.00 | 0.00 | 0.00 | 34 | 1003.7 |
| 20260504174617 | 18 | 205 | 0.0 | 9.7 | 0.00 | 0.00 | 0.00 | 34 | 1003.8 |
| 20260504173015 | 19 | 196 | 1.6 | 20.9 | 0.00 | 0.00 | 0.00 | 32 | 1003.9 |
| 20260504171510 | 20 | 315 | 4.8 | 25.7 | 0.00 | 0.00 | 0.00 | 33 | 1003.7 |